| time (UTC) | temp F | wind direction | speed MPH | gust MPH | rain 1hr in | rain 24hr in | rain mn in | humidity % | barometer mb |
| 20260502130403 | 40 | 323 | 0.0 | 3.0 | 0.00 | 0.05 | 0.00 | 81 | 1017.8 |
| 20260502122249 | 37 | 279 | 1.0 | 3.0 | 0.00 | 0.05 | 0.00 | 89 | 1017.6 |
| 20260502120130 | 35 | 305 | 0.0 | 2.0 | 0.00 | 0.06 | 0.00 | 94 | 1017.4 |
| 20260502115108 | 34 | 310 | 0.0 | 0.0 | 0.00 | 0.06 | 0.00 | 95 | 1017.3 |
| 20260502114118 | 34 | 310 | 0.0 | 1.0 | 0.00 | 0.06 | 0.00 | 95 | 1017.3 |
| 20260502113056 | 33 | 310 | 0.0 | 1.0 | 0.00 | 0.06 | 0.00 | 95 | 1017.3 |
| 20260502112048 | 32 | 310 | 0.0 | 0.0 | 0.00 | 0.06 | 0.00 | 95 | 1017.2 |
| 20260502111048 | 32 | 310 | 0.0 | 0.0 | 0.00 | 0.06 | 0.00 | 95 | 1017.1 |
| 20260502110020 | 32 | 310 | 0.0 | 0.0 | 0.00 | 0.06 | 0.00 | 94 | 1017.1 |
| 20260502105028 | 32 | 310 | 0.0 | 0.0 | 0.00 | 0.06 | 0.00 | 94 | 1017.0 |
| 20260502103954 | 32 | 310 | 0.0 | 0.0 | 0.00 | 0.06 | 0.00 | 94 | 1017.0 |
| 20260502103010 | 32 | 310 | 0.0 | 0.0 | 0.00 | 0.06 | 0.00 | 94 | 1017.1 |
| 20260502102028 | 32 | 310 | 0.0 | 0.0 | 0.00 | 0.06 | 0.00 | 94 | 1017.1 |
| 20260502090333 | 32 | 310 | 0.0 | 0.0 | 0.00 | 0.06 | 0.00 | 94 | 1017.0 |
| 20260502071103 | 34 | 310 | 0.0 | 0.0 | 0.00 | 0.06 | 0.00 | 94 | 1016.7 |
| 20260502070056 | 34 | 310 | 0.0 | 0.0 | 0.00 | 0.06 | 0.00 | 94 | 1016.9 |
| 20260502065104 | 34 | 310 | 0.0 | 0.0 | 0.00 | 0.06 | 0.00 | 94 | 1016.9 |
| 20260502064102 | 34 | 310 | 0.0 | 0.0 | 0.00 | 0.06 | 0.00 | 93 | 1017.0 |
| 20260502063030 | 34 | 310 | 0.0 | 0.0 | 0.00 | 0.06 | 0.00 | 93 | 1016.9 |
| 20260502062050 | 34 | 310 | 0.0 | 0.0 | 0.00 | 0.06 | 0.00 | 93 | 1017.0 |
| 20260502061114 | 35 | 310 | 0.0 | 0.0 | 0.00 | 0.06 | 0.00 | 93 | 1017.0 |
| 20260502060043 | 35 | 310 | 0.0 | 0.0 | 0.00 | 0.06 | 0.00 | 93 | 1017.0 |
| 20260502055008 | 35 | 310 | 0.0 | 0.0 | 0.00 | 0.06 | 0.00 | 93 | 1017.0 |
| 20260502053944 | 35 | 310 | 0.0 | 0.0 | 0.00 | 0.06 | 0.00 | 93 | 1017.1 |
| 20260502052940 | 36 | 310 | 0.0 | 0.0 | 0.00 | 0.06 | 0.00 | 93 | 1017.2 |
| 20260502051906 | 36 | 310 | 0.0 | 0.0 | 0.00 | 0.06 | 0.00 | 93 | 1017.1 |
| 20260502045742 | 36 | 310 | 0.0 | 0.0 | 0.00 | 0.06 | 0.00 | 93 | 1017.1 |
| 20260502044721 | 37 | 310 | 0.0 | 0.0 | 0.00 | 0.06 | 0.00 | 93 | 1017.2 |
| 20260502043717 | 37 | 310 | 0.0 | 0.0 | 0.00 | 0.06 | 0.00 | 93 | 1017.0 |
| 20260502042717 | 37 | 310 | 0.0 | 0.0 | 0.00 | 0.06 | 0.00 | 93 | 1017.0 |
| 20260502041721 | 37 | 310 | 0.0 | 0.0 | 0.00 | 0.06 | 0.00 | 93 | 1017.1 |
| 20260502040745 | 37 | 310 | 0.0 | 0.0 | 0.00 | 0.06 | 0.00 | 92 | 1017.0 |
| 20260502035711 | 38 | 310 | 0.0 | 0.0 | 0.00 | 0.06 | 0.06 | 92 | 1016.9 |
| 20260502034659 | 38 | 310 | 0.0 | 0.0 | 0.00 | 0.06 | 0.06 | 92 | 1016.9 |
| 20260502033635 | 38 | 310 | 0.0 | 0.0 | 0.00 | 0.06 | 0.06 | 92 | 1016.9 |
| 20260502032656 | 38 | 310 | 0.0 | 0.0 | 0.00 | 0.06 | 0.06 | 92 | 1017.0 |
| 20260502031638 | 39 | 310 | 0.0 | 0.0 | 0.00 | 0.06 | 0.06 | 92 | 1017.0 |
| 20260502030629 | 39 | 310 | 0.0 | 0.0 | 0.00 | 0.06 | 0.06 | 91 | 1017.0 |
| 20260502025639 | 39 | 310 | 0.0 | 0.0 | 0.00 | 0.06 | 0.06 | 91 | 1016.9 |
| 20260502024654 | 40 | 310 | 0.0 | 0.0 | 0.00 | 0.06 | 0.06 | 91 | 1016.9 |
| 20260502023638 | 40 | 310 | 0.0 | 0.0 | 0.00 | 0.06 | 0.06 | 90 | 1017.1 |
| 20260502022656 | 40 | 310 | 0.0 | 0.0 | 0.00 | 0.06 | 0.06 | 90 | 1017.0 |
| 20260502021655 | 41 | 310 | 0.0 | 0.0 | 0.00 | 0.06 | 0.06 | 89 | 1016.9 |
| 20260502020624 | 41 | 310 | 0.0 | 0.0 | 0.00 | 0.06 | 0.06 | 89 | 1016.7 |
| 20260502014535 | 42 | 310 | 0.0 | 0.0 | 0.00 | 0.06 | 0.06 | 88 | 1016.4 |
| 20260502013532 | 43 | 310 | 0.0 | 0.0 | 0.00 | 0.06 | 0.06 | 87 | 1016.3 |
| 20260502012459 | 43 | 310 | 0.0 | 0.0 | 0.00 | 0.06 | 0.06 | 86 | 1016.1 |
| 20260502011520 | 44 | 310 | 0.0 | 0.0 | 0.00 | 0.06 | 0.06 | 85 | 1015.9 |
| 20260502010519 | 45 | 310 | 0.0 | 0.0 | 0.00 | 0.06 | 0.06 | 83 | 1015.5 |
| 20260502005449 | 46 | 310 | 0.0 | 0.0 | 0.08 | 0.06 | 0.06 | 80 | 1015.6 |
| 20260502004456 | 47 | 310 | 1.0 | 5.0 | 0.00 | 0.04 | 0.05 | 76 | 1015.6 |
| 20260502003459 | 48 | 284 | 0.0 | 2.0 | 0.00 | 0.04 | 0.04 | 69 | 1015.5 |
| 20260502001327 | 48 | 261 | 0.0 | 2.0 | 0.00 | 0.04 | 0.04 | 68 | 1015.2 |
| 20260502000332 | 48 | 261 | 1.0 | 3.0 | 0.00 | 0.04 | 0.04 | 69 | 1015.2 |
| 20260501234154 | 49 | 281 | 0.0 | 2.0 | 0.00 | 0.04 | 0.04 | 71 | 1014.7 |
| 20260501233132 | 49 | 277 | 0.0 | 0.0 | 0.00 | 0.04 | 0.04 | 71 | 1014.5 |
| 20260501232112 | 49 | 277 | 0.0 | 2.0 | 0.00 | 0.04 | 0.04 | 71 | 1014.4 |
| 20260501231114 | 49 | 277 | 0.0 | 0.0 | 0.00 | 0.04 | 0.04 | 73 | 1014.4 |
| 20260501225027 | 49 | 308 | 0.0 | 2.0 | 0.00 | 0.04 | 0.04 | 72 | 1014.3 |
| 20260501224045 | 49 | 315 | 0.0 | 0.0 | 0.00 | 0.04 | 0.04 | 72 | 1014.4 |
| 20260501223106 | 49 | 313 | 0.0 | 2.0 | 0.00 | 0.04 | 0.04 | 71 | 1014.4 |
| 20260501215738 | 50 | 274 | 1.0 | 6.0 | 0.00 | 0.04 | 0.04 | 70 | 1014.6 |
| 20260501214759 | 50 | 339 | 1.0 | 6.0 | 0.00 | 0.04 | 0.04 | 71 | 1014.6 |
| 20260501213817 | 50 | 277 | 1.0 | 7.0 | 0.00 | 0.04 | 0.04 | 72 | 1014.5 |
| 20260501212824 | 48 | 279 | 2.0 | 7.0 | 0.00 | 0.04 | 0.04 | 77 | 1014.4 |
| 20260501211753 | 47 | 266 | 2.0 | 5.0 | 0.00 | 0.04 | 0.04 | 79 | 1014.3 |
| 20260501210741 | 47 | 284 | 1.0 | 5.0 | 0.00 | 0.04 | 0.04 | 80 | 1014.2 |
| 20260501205727 | 47 | 0 | 1.0 | 6.0 | 0.00 | 0.04 | 0.04 | 81 | 1014.1 |
| 20260501204748 | 46 | 270 | 1.0 | 6.0 | 0.00 | 0.04 | 0.04 | 81 | 1014.1 |
| 20260501203813 | 46 | 261 | 0.0 | 3.0 | 0.00 | 0.04 | 0.04 | 82 | 1014.2 |
| 20260501201650 | 46 | 292 | 2.0 | 6.0 | 0.00 | 0.04 | 0.04 | 81 | 1014.1 |
| 20260501200648 | 46 | 319 | 1.0 | 6.0 | 0.00 | 0.04 | 0.04 | 81 | 1014.0 |
| 20260501195711 | 46 | 279 | 1.0 | 2.0 | 0.00 | 0.04 | 0.04 | 82 | 1014.0 |
| 20260501194647 | 46 | 261 | 1.0 | 5.0 | 0.00 | 0.04 | 0.04 | 82 | 1013.9 |
| 20260501193659 | 46 | 267 | 1.0 | 5.0 | 0.00 | 0.04 | 0.04 | 82 | 1013.7 |
| 20260501192625 | 47 | 323 | 1.0 | 5.0 | 0.00 | 0.04 | 0.04 | 81 | 1013.7 |
| 20260501190527 | 46 | 263 | 2.0 | 9.0 | 0.00 | 0.04 | 0.04 | 82 | 1013.6 |
| 20260501185455 | 47 | 267 | 2.0 | 8.0 | 0.00 | 0.04 | 0.04 | 83 | 1013.5 |
| 20260501184503 | 47 | 281 | 2.0 | 8.0 | 0.00 | 0.04 | 0.04 | 81 | 1013.3 |
| 20260501182330 | 49 | 292 | 2.0 | 7.0 | 0.00 | 0.04 | 0.04 | 79 | 1012.6 |
| 20260501181323 | 51 | 269 | 2.0 | 10.0 | 0.00 | 0.04 | 0.04 | 81 | 1012.4 |
| 20260501180306 | 51 | 280 | 3.0 | 14.0 | 0.00 | 0.04 | 0.04 | 80 | 1011.9 |
| 20260501175317 | 51 | 278 | 4.0 | 14.0 | 0.00 | 0.04 | 0.04 | 80 | 1011.8 |
| 20260501174313 | 51 | 269 | 3.0 | 10.0 | 0.00 | 0.04 | 0.04 | 81 | 1011.6 |
| 20260501172119 | 50 | 194 | 1.0 | 8.0 | 0.00 | 0.04 | 0.04 | 88 | 1011.3 |
| 20260501171132 | 49 | 199 | 1.0 | 6.0 | 0.00 | 0.04 | 0.04 | 89 | 1011.4 |
| 20260501170138 | 49 | 258 | 0.0 | 5.0 | 0.00 | 0.04 | 0.04 | 89 | 1011.3 |
| 20260501165149 | 49 | 191 | 1.0 | 5.0 | 0.00 | 0.04 | 0.04 | 88 | 1011.3 |
| 20260501164204 | 49 | 257 | 0.0 | 2.0 | 0.00 | 0.04 | 0.04 | 88 | 1011.3 |
| 20260501163151 | 49 | 215 | 1.0 | 10.0 | 0.00 | 0.04 | 0.04 | 89 | 1011.2 |
| 20260501162203 | 48 | 258 | 1.0 | 10.0 | 0.00 | 0.04 | 0.04 | 89 | 1011.2 |
| 20260501161220 | 48 | 213 | 1.0 | 5.0 | 0.00 | 0.04 | 0.04 | 89 | 1011.2 |
| 20260501160236 | 48 | 231 | 0.0 | 5.0 | 0.00 | 0.04 | 0.04 | 89 | 1011.4 |
| 20260501155222 | 48 | 240 | 0.0 | 5.0 | 0.00 | 0.03 | 0.04 | 87 | 1011.3 |
| 20260501154210 | 48 | 226 | 0.0 | 2.0 | 0.00 | 0.03 | 0.03 | 87 | 1011.4 |
| 20260501150834 | 49 | 226 | 0.0 | 1.0 | 0.00 | 0.02 | 0.02 | 86 | 1011.3 |
| 20260501145809 | 48 | 226 | 0.0 | 2.0 | 0.00 | 0.02 | 0.02 | 86 | 1011.4 |
| 20260501142527 | 48 | 227 | 0.0 | 0.0 | 0.00 | 0.02 | 0.02 | 87 | 1011.6 |